This is the latest recevied weather packets stored in our database for station/object OM6ACB-6. If no packets are shown the sender has not sent any weather packets the latest 10 day(s).
| Time | Temp. | Humidity | Pressure | Rain* | Wind** | Luminosity | Snow |
|---|---|---|---|---|---|---|---|
| 1777471214 | 12.22° C | 26% | 1024.7 hPa | 0 mm | - | - | - |
| 1777470613 | 12.22° C | 26% | 1024.5 hPa | 0 mm | - | - | - |
| 1777470013 | 11.67° C | 27% | 1024.4 hPa | 0 mm | - | - | - |
| 1777469413 | 13.33° C | 26% | 1024.4 hPa | 0 mm | - | - | - |
| 1777468813 | 13.33° C | 26% | 1024.4 hPa | 0 mm | - | - | - |
| 1777468212 | 12.22° C | 26% | 1024.3 hPa | 0 mm | - | - | - |
| 1777467612 | 12.78° C | 26% | 1024.1 hPa | 0 mm | - | - | - |
| 1777467012 | 12.22° C | 26% | 1024.2 hPa | 0 mm | - | - | - |
| 1777466411 | 12.78° C | 26% | 1024.2 hPa | 0 mm | - | - | - |
| 1777465811 | 13.89° C | 25% | 1024.4 hPa | 0 mm | - | - | - |
| 1777465211 | 13.89° C | 26% | 1024.1 hPa | 0 mm | - | - | - |
| 1777464610 | 12.78° C | 26% | 1024.2 hPa | 0 mm | - | - | - |
| 1777464010 | 13.33° C | 26% | 1024.3 hPa | 0 mm | - | - | - |
| 1777463410 | 13.33° C | 26% | 1024.2 hPa | 0 mm | - | - | - |
| 1777462810 | 12.78° C | 26% | 1024.2 hPa | 0 mm | - | - | - |
| 1777462209 | 12.22° C | 26% | 1024.2 hPa | 0 mm | - | - | - |
| 1777461609 | 13.33° C | 26% | 1024.2 hPa | 0 mm | - | - | - |
| 1777461009 | 12.22° C | 26% | 1024.2 hPa | 0 mm | - | - | - |
| 1777460408 | 13.89° C | 26% | 1024.4 hPa | 0 mm | - | - | - |
| 1777459808 | 12.78° C | 26% | 1024.4 hPa | 0 mm | - | - | - |
| 1777459208 | 14.44° C | 25% | 1024.7 hPa | 0 mm | - | - | - |
| 1777458608 | 13.33° C | 26% | 1024.4 hPa | 0 mm | - | - | - |
| 1777458007 | 13.89° C | 26% | 1024.7 hPa | 0 mm | - | - | - |
| 1777457407 | 13.33° C | 26% | 1024.7 hPa | 0 mm | - | - | - |
| 1777456807 | 13.33° C | 26% | 1024.9 hPa | 0 mm | - | - | - |
* Rain latest hour (hover to see other rain measurements)
** Current wind speed in m/s (hover to see current wind gust speed)